Snowfall_Accumulation
0.0 0.0 0.0 0.0 0.0 0.0 0.0 0.0 0.0 0.0 0.0 0.0 0.0 0.0 0.0 0.0 0.0 0.0 0.0 0.0 0.0 0.0 0.0 0.0 0.0 0.0 0.0 0.0 0.0 0.0 0.0 0.0 0.0 0.0 0.0 0.0 0.0 0.0 0.0 0.0 0.0 0.0 0.0 0.0
0.0 0.0 0.0 0.0 0.0 0.0 0.0 0.0 0.0 0.0 0.0 0.0 0.0 0.0 0.0 0.0 0.0 0.0 0.0 0.0 0.0 0.0 0.0 0.0 0.0 0.0 0.0 0.0 0.0 0.0 0.0 0.0 0.0 0.0 0.0 0.0 0.0 0.0 0.0 0.0 0.0 0.0 0.0 0.0
0.0 0.0 0.0 0.0 0.0 0.0 0.0 0.0 0.0 0.0 0.0 0.0 0.0 0.0 0.0 0.0 0.0 0.0 0.0 0.0 0.0 0.0 0.0 0.0 0.0 0.0 0.0 0.0 0.0 0.0 0.0 0.0 0.0 0.0 0.0 0.0 0.0 0.0 0.0 0.0 0.0 0.0 0.0 0.0
0.0 0.0 0.0 0.0 0.0 0.0 0.0 0.0 0.0 0.0 0.0 0.0 0.0 0.0 0.0 0.0 0.0 0.0 0.0 0.0 0.0 0.0 0.0 0.0 0.0 0.0 0.0 0.0 0.0 0.0 0.0 0.0 0.0 0.0 0.0 0.0 0.0 0.0 0.0 0.0 0.0 0.0 0.0 0.0
0.0 0.0 0.0 0.0 0.0 0.0 0.0 0.0 0.0 0.0 0.0 0.0 0.0 0.0 0.0 0.0 0.0 0.0 0.0 0.0 0.0 0.0 0.0 0.0 0.0 0.0 0.0 0.0 0.0 0.0 0.0 0.0 0.0 0.0 0.0 0.0 0.0 0.0 0.0 0.0 0.0 0.0 0.0 0.0
0.0 0.0 0.0 0.0 0.0 0.0 0.0 0.0 0.0 0.0 0.0 0.3 0.0 0.0 0.0 0.0 0.0 0.0 0.0 0.0 0.0 0.0 0.0 0.0 0.0 0.0 0.0 0.0 0.0 0.0 0.0 0.0 0.0 0.0 0.0 0.0 0.0 0.0 0.0 0.0 0.0 0.0 0.0 0.0
0.0 0.0 0.0 0.0 0.0 0.0 0.0 0.0 0.3 0.7 1.9 0.9 0.0 0.1 0.0 0.0 0.0 0.0 0.0 0.0 0.0 0.0 0.0 0.0 0.0 0.0 0.0 0.0 0.0 0.0 0.0 0.0 0.0 0.0 0.0 0.0 0.0 0.0 0.0 0.0 0.0 0.0 0.0 0.0
0.0 0.0 0.0 0.0 0.0 0.0 0.0 0.0 1.1 4.1 2.0 0.6 0.3 0.3 0.0 0.0 0.0 0.0 0.0 0.0 0.0 0.0 0.0 0.0 0.0 0.0 0.0 0.0 0.0 0.0 0.0 0.0 0.0 0.0 0.0 0.0 0.0 0.0 0.0 0.0 0.0 0.0 0.0 0.0
0.0 0.0 0.0 0.0 0.0 0.0 0.0 0.0 0.0 0.6 4.5 3.8 0.0 0.0 0.0 0.0 0.0 0.0 0.0 0.0 0.0 0.0 0.0 0.0 0.0 0.0 0.0 0.0 0.0 0.0 0.0 0.0 0.0 0.0 0.0 0.0 0.0 0.0 0.0 0.0 0.0 0.0 0.0 0.0
0.0 1.7 0.0 0.0 0.0 0.0 0.0 0.0 0.4 0.5 6.8 5.8 0.0 0.0 0.0 0.0 0.0 0.0 0.0 0.0 0.0 0.0 0.0 0.0 0.0 0.0 0.0 0.0 0.0 0.0 0.0 0.0 0.0 0.0 0.0 0.0 0.0 0.0 0.0 0.0 0.0 0.0 0.0 0.0
0.0 0.2 0.1 0.0 0.0 0.0 0.0 0.0 0.0 0.3 1.1 3.5 2.5 0.2 0.0 0.0 0.0 0.0 0.0 0.0 0.0 0.0 0.0 0.0 0.0 0.0 0.0 0.0 0.0 0.0 0.0 0.0 0.0 0.0 0.0 0.0 0.0 0.0 0.0 0.0 0.0 0.0 0.0 0.0
0.0 0.0 2.6 0.0 0.0 0.0 0.0 0.0 0.0 0.8 0.7 0.6 1.2 1.2 0.0 0.0 0.0 0.0 0.0 0.0 0.0 0.0 0.0 0.0 0.0 0.0 0.0 0.0 0.0 0.0 0.0 0.0 0.0 0.0 0.0 0.0 0.0 0.0 0.0 0.0 0.0 0.0 0.0 0.0
0.0 1.2 7.8 4.3 0.1 0.0 0.0 0.0 0.0 0.4 1.5 4.6 7.7 3.0 0.0 0.0 0.0 0.0 0.0 0.0 0.0 0.0 0.0 0.0 0.0 0.0 0.0 0.0 0.0 0.0 0.0 0.0 0.0 0.0 0.0 0.0 0.0 0.0 0.0 0.0 0.0 0.0 0.0 0.0
nan 0.5 2.6 2.9 0.4 0.0 0.9 0.1 0.1 0.9 4.8 1.9 2.0 0.5 0.0 0.0 0.0 0.0 0.0 0.0 0.0 0.0 0.0 0.0 0.0 0.0 0.0 0.0 0.0 0.0 0.0 0.0 0.0 0.0 0.0 0.0 0.0 0.0 0.0 0.0 0.0 0.0 0.0 0.0
0.0 5.5 0.5 0.4 0.3 0.4 1.0 0.5 0.1 0.1 0.1 1.7 0.6 0.5 0.0 0.3 0.4 0.1 0.0 0.0 0.0 0.0 0.0 0.0 0.0 0.0 0.0 0.0 0.0 0.0 0.0 0.0 0.0 0.0 0.0 0.0 0.0 0.0 0.1 0.2 0.2 0.2 0.2 0.1
0.1 5.9 1.2 4.8 0.1 0.1 0.4 0.1 0.1 0.2 0.1 0.1 0.0 0.0 0.0 0.0 0.0 0.0 0.0 0.0 0.0 0.0 0.0 0.0 0.0 0.0 0.0 0.0 0.0 0.0 0.0 0.0 0.0 0.0 0.0 0.0 0.3 0.5 0.3 0.5 0.8 0.3 0.2 0.2
0.7 3.1 8.5 14.6 0.5 0.7 6.7 1.0 0.0 0.0 0.0 0.0 0.4 0.3 1.2 0.6 0.1 0.0 0.0 0.0 0.0 0.0 0.0 0.0 0.0 0.0 0.0 0.0 0.0 0.0 0.0 0.2 0.4 0.4 1.0 1.0 1.2 1.7 0.9 0.6 0.8 0.6 0.6 0.5
0.3 3.1 6.6 18.3 10.0 28.7 2.3 0.0 0.0 0.0 0.2 0.6 1.6 2.5 1.7 0.7 0.1 0.1 0.1 0.1 0.0 0.0 0.0 0.0 0.0 0.0 0.0 0.0 0.0 0.0 0.3 0.5 0.7 2.0 2.8 1.8 1.5 2.7 0.6 0.5 0.5 0.7 0.5 0.6
0.0 0.2 10.0 28.3 19.2 1.2 0.3 0.1 0.0 0.6 0.9 1.7 2.1 1.0 0.3 0.0 0.0 0.0 0.0 0.0 0.0 0.0 0.0 0.0 0.0 0.0 0.0 0.0 0.0 0.6 0.6 0.5 0.7 0.8 1.3 1.5 2.2 3.2 1.2 3.3 0.7 0.8 1.9 1.1
0.2 0.1 1.4 21.4 27.5 20.6 0.3 0.0 0.0 0.0 3.2 2.6 3.1 1.9 1.2 0.2 2.5 0.3 0.0 0.0 0.0 0.0 0.0 0.0 0.0 0.0 0.0 0.3 0.5 0.7 0.7 0.7 0.8 0.9 0.9 1.1 2.2 4.6 3.7 2.0 2.9 3.2 3.0 2.8
5.8 10.4 14.6 14.7 23.5 7.1 1.5 0.9 0.1 6.5 5.1 2.2 1.5 1.1 0.7 1.5 0.5 0.1 0.0 0.0 0.0 0.0 0.0 0.0 0.0 0.2 0.5 0.7 0.9 0.7 0.7 0.8 1.0 1.6 1.4 1.6 2.2 5.0 3.2 3.6 2.8 3.9 4.1 2.2
2.3 9.7 20.9 16.2 21.6 24.2 0.7 0.2 1.3 1.3 0.4 1.2 0.3 0.2 0.4 0.1 0.0 0.0 0.0 0.0 0.0 0.1 0.1 0.2 1.0 0.7 0.7 1.0 1.4 1.0 0.8 0.9 1.3 1.7 1.9 3.3 5.4 5.2 5.0 8.2 4.9 6.4 5.6 5.3
6.7 1.9 8.7 3.3 4.3 0.1 0.6 0.4 0.2 0.2 1.3 0.7 0.4 0.3 0.0 0.0 0.0 0.0 0.0 0.0 0.0 0.5 0.8 1.0 1.5 1.3 0.9 1.1 2.0 3.3 1.3 1.4 2.0 5.6 7.6 7.7 6.8 6.7 6.7 9.7 5.7 7.3 6.0 7.0
0.2 0.0 1.7 2.1 0.1 0.1 0.1 0.0 0.0 0.1 0.3 0.2 0.3 0.4 0.1 0.1 0.3 0.4 0.6 0.5 0.4 0.7 0.6 1.3 1.9 1.8 1.8 2.3 3.1 3.7 2.5 2.2 11.2 10.7 5.5 4.4 5.7 4.4 5.6 7.4 8.7 11.2 8.7 7.1
0.5 0.4 0.6 1.3 0.0 0.0 0.0 0.0 0.0 0.0 0.2 0.4 0.3 0.3 0.0 0.2 0.8 0.5 1.0 1.1 0.5 0.6 1.0 1.3 1.8 1.7 2.4 2.1 2.6 4.0 4.3 5.1 7.1 7.4 4.2 5.7 8.0 8.6 5.0 4.4 9.2 7.5 4.5 9.6
0.0 0.0 0.1 2.0 0.0 0.0 0.0 0.0 0.0 0.1 0.2 0.2 0.3 0.4 0.4 0.4 0.5 0.6 0.9 0.5 0.9 1.1 1.4 1.8 1.6 1.9 2.8 3.5 4.0 5.6 7.5 7.3 7.4 4.6 6.3 6.3 6.1 5.1 4.4 4.6 4.8 nan nan nan
Water_Equivalent
0.00 0.00 0.00 0.00 0.00 0.00 0.00 0.00 0.00 0.00 0.00 0.00 0.00 0.00 0.00 0.00 0.00 0.00 0.00 0.00 0.00 0.00 0.00 0.00 0.00 0.00 0.00 0.00 0.00 0.00 0.00 0.00 0.00 0.00 0.00 0.00 0.00 0.00 0.00 0.00 0.00 0.00 0.00 0.00
0.00 0.00 0.00 0.00 0.00 0.00 0.00 0.00 0.00 0.00 0.00 0.00 0.00 0.00 0.00 0.00 0.00 0.00 0.00 0.00 0.00 0.00 0.00 0.00 0.00 0.00 0.00 0.00 0.00 0.00 0.00 0.00 0.00 0.00 0.00 0.00 0.00 0.00 0.00 0.00 0.00 0.00 0.00 0.00
0.00 0.00 0.00 0.00 0.00 0.00 0.00 0.00 0.00 0.00 0.00 0.00 0.00 0.00 0.00 0.00 0.00 0.00 0.00 0.00 0.00 0.00 0.00 0.00 0.00 0.00 0.00 0.00 0.00 0.00 0.00 0.00 0.00 0.00 0.00 0.00 0.00 0.00 0.00 0.00 0.00 0.00 0.00 0.00
0.00 0.00 0.00 0.00 0.00 0.00 0.00 0.00 0.00 0.00 0.00 0.00 0.00 0.00 0.00 0.00 0.00 0.00 0.00 0.00 0.00 0.00 0.00 0.00 0.00 0.00 0.00 0.00 0.00 0.00 0.00 0.00 0.00 0.00 0.00 0.00 0.00 0.00 0.00 0.00 0.00 0.00 0.00 0.00
0.00 0.00 0.00 0.00 0.00 0.00 0.00 0.00 0.00 0.00 0.00 0.00 0.00 0.00 0.00 0.00 0.00 0.00 0.00 0.00 0.00 0.00 0.00 0.00 0.00 0.00 0.00 0.00 0.00 0.00 0.00 0.00 0.00 0.00 0.00 0.00 0.00 0.00 0.00 0.00 0.00 0.00 0.00 0.00
0.00 0.00 0.00 0.00 0.00 0.00 0.00 0.00 0.00 0.00 0.00 0.05 0.00 0.00 0.00 0.00 0.00 0.00 0.00 0.00 0.00 0.00 0.00 0.00 0.00 0.00 0.00 0.00 0.00 0.00 0.00 0.00 0.00 0.00 0.00 0.00 0.00 0.00 0.00 0.00 0.00 0.00 0.00 0.00
0.00 0.00 0.00 0.00 0.00 0.00 0.00 0.00 0.06 0.13 0.32 0.17 0.00 0.03 0.00 0.00 0.00 0.00 0.00 0.00 0.00 0.00 0.00 0.00 0.00 0.00 0.00 0.00 0.00 0.00 0.00 0.00 0.00 0.00 0.00 0.00 0.00 0.00 0.00 0.00 0.00 0.00 0.00 0.00
0.00 0.00 0.00 0.00 0.00 0.00 0.00 0.00 0.19 0.51 0.30 0.12 0.04 0.06 0.00 0.00 0.00 0.00 0.00 0.00 0.00 0.00 0.00 0.00 0.00 0.00 0.00 0.00 0.00 0.00 0.00 0.00 0.00 0.00 0.00 0.00 0.00 0.00 0.00 0.00 0.00 0.00 0.00 0.00
0.00 0.01 0.00 0.00 0.00 0.00 0.00 0.00 0.00 0.09 0.58 0.53 0.00 0.00 0.00 0.00 0.00 0.00 0.00 0.00 0.00 0.00 0.00 0.00 0.00 0.00 0.00 0.00 0.00 0.00 0.00 0.00 0.00 0.00 0.00 0.00 0.00 0.00 0.00 0.00 0.00 0.00 0.00 0.00
0.00 0.28 0.00 0.00 0.00 0.00 0.00 0.00 0.07 0.09 0.81 0.64 0.00 0.00 0.00 0.00 0.00 0.00 0.00 0.00 0.00 0.00 0.00 0.00 0.00 0.00 0.00 0.00 0.00 0.00 0.00 0.00 0.00 0.00 0.00 0.00 0.00 0.00 0.00 0.00 0.00 0.00 0.00 0.00
0.00 0.04 0.02 0.00 0.00 0.00 0.00 0.00 0.00 0.04 0.17 0.45 0.32 0.04 0.00 0.00 0.00 0.00 0.00 0.00 0.00 0.00 0.00 0.00 0.00 0.00 0.00 0.00 0.00 0.00 0.00 0.00 0.00 0.00 0.00 0.00 0.00 0.00 0.00 0.00 0.00 0.00 0.00 0.00
0.00 0.01 0.41 0.00 0.00 0.00 0.00 0.00 0.00 0.15 0.10 0.10 0.22 0.19 0.00 0.00 0.00 0.00 0.00 0.00 0.00 0.00 0.00 0.00 0.00 0.00 0.00 0.00 0.00 0.00 0.00 0.00 0.00 0.00 0.00 0.00 0.00 0.00 0.00 0.00 0.00 0.00 0.00 0.00
0.00 0.25 1.18 0.67 0.01 0.00 0.00 0.00 0.00 0.06 0.27 0.63 0.95 0.41 0.00 0.00 0.00 0.00 0.00 0.00 0.00 0.00 0.00 0.00 0.00 0.00 0.00 0.00 0.00 0.00 0.00 0.00 0.00 0.00 0.00 0.00 0.00 0.00 0.00 0.00 0.00 0.00 0.00 0.00
nan 0.13 0.48 0.41 0.06 0.00 0.14 0.02 0.02 0.13 0.63 0.28 0.30 0.08 0.00 0.00 0.00 0.00 0.00 0.00 0.00 0.00 0.00 0.00 0.00 0.00 0.00 0.00 0.00 0.00 0.00 0.00 0.00 0.00 0.00 0.00 0.00 0.00 0.00 0.00 0.01 0.00 0.00 0.00
0.01 1.03 0.12 0.08 0.06 0.08 0.15 0.08 0.01 0.02 0.01 0.21 0.11 0.08 0.00 0.05 0.06 0.01 0.00 0.00 0.00 0.00 0.00 0.00 0.00 0.00 0.00 0.00 0.00 0.00 0.00 0.00 0.00 0.00 0.00 0.00 0.00 0.00 0.02 0.02 0.02 0.02 0.02 0.02
0.01 0.96 0.20 0.71 0.03 0.02 0.06 0.01 0.02 0.04 0.02 0.02 0.01 0.00 0.00 0.00 0.00 0.00 0.00 0.00 0.00 0.00 0.00 0.00 0.00 0.00 0.00 0.00 0.00 0.00 0.00 0.00 0.00 0.00 0.00 0.00 0.03 0.06 0.04 0.06 0.10 0.04 0.03 0.03
0.12 0.60 1.24 1.75 0.09 0.11 0.79 0.18 0.00 0.00 0.00 0.00 0.07 0.04 0.21 0.09 0.01 0.00 0.01 0.00 0.00 0.00 0.00 0.00 0.00 0.00 0.00 0.00 0.00 0.00 0.00 0.02 0.04 0.05 0.11 0.12 0.13 0.19 0.11 0.07 0.10 0.08 0.07 0.07
0.07 0.56 1.17 2.18 1.33 2.84 0.37 0.00 0.00 0.00 0.02 0.08 0.21 0.33 0.24 0.09 0.01 0.02 0.02 0.03 0.00 0.00 0.00 0.00 0.00 0.00 0.00 0.00 0.00 0.00 0.04 0.06 0.08 0.20 0.28 0.18 0.15 0.27 0.06 0.06 0.06 0.09 0.06 0.08
0.00 0.05 1.13 3.20 2.15 0.20 0.06 0.01 0.01 0.07 0.12 0.22 0.27 0.14 0.05 0.00 0.00 0.00 0.00 0.00 0.00 0.00 0.00 0.00 0.00 0.00 0.00 0.00 0.00 0.06 0.06 0.06 0.07 0.08 0.13 0.14 0.21 0.30 0.11 0.34 0.07 0.07 0.21 0.13
0.03 0.02 0.28 2.37 2.97 2.10 0.04 0.00 0.00 0.00 0.35 0.36 0.42 0.26 0.18 0.03 0.36 0.05 0.00 0.00 0.00 0.00 0.00 0.00 0.00 0.00 0.00 0.04 0.05 0.07 0.07 0.07 0.07 0.08 0.08 0.10 0.20 0.43 0.34 0.19 0.29 0.34 0.33 0.31
0.72 1.28 1.64 1.79 2.69 0.95 0.27 0.13 0.02 0.71 0.64 0.39 0.22 0.15 0.10 0.21 0.09 0.02 0.00 0.00 0.00 0.00 0.00 0.00 0.00 0.02 0.06 0.07 0.08 0.07 0.06 0.08 0.09 0.15 0.12 0.14 0.19 0.46 0.29 0.34 0.29 0.40 0.45 0.24
0.26 1.07 2.26 1.76 2.26 2.52 0.11 0.04 0.13 0.14 0.07 0.19 0.05 0.04 0.07 0.02 0.01 0.00 0.00 0.00 0.00 0.01 0.01 0.03 0.11 0.07 0.07 0.10 0.12 0.09 0.08 0.08 0.12 0.14 0.15 0.29 0.50 0.47 0.48 0.85 0.52 0.71 0.62 0.61
0.75 0.23 0.93 0.42 0.54 0.02 0.10 0.08 0.05 0.04 0.24 0.13 0.07 0.05 0.00 0.01 0.00 0.00 0.00 0.00 0.00 0.07 0.09 0.11 0.16 0.13 0.09 0.11 0.18 0.26 0.11 0.12 0.16 0.53 0.74 0.74 0.65 0.65 0.65 1.01 0.59 0.84 0.72 0.87
0.03 0.00 0.27 0.29 0.02 0.02 0.01 0.00 0.00 0.02 0.05 0.04 0.05 0.06 0.02 0.02 0.04 0.06 0.09 0.07 0.05 0.08 0.06 0.13 0.20 0.17 0.16 0.23 0.29 0.34 0.20 0.18 1.13 1.05 0.51 0.41 0.54 0.45 0.56 0.79 0.96 1.32 1.03 0.85
0.09 0.09 0.13 0.22 0.01 0.00 0.00 0.00 0.00 0.01 0.04 0.06 0.05 0.05 0.01 0.04 0.11 0.07 0.13 0.15 0.07 0.06 0.10 0.13 0.18 0.17 0.22 0.18 0.22 0.35 0.33 0.42 0.65 0.69 0.37 0.52 0.77 0.86 0.49 0.44 0.80 0.69 0.45 0.98
0.00 0.00 0.02 0.26 0.00 0.00 0.00 0.00 0.00 0.01 0.03 0.03 0.04 0.05 0.06 0.06 0.07 0.08 0.12 0.07 0.11 0.13 0.14 0.17 0.14 0.15 0.20 0.26 0.31 0.45 0.62 0.62 0.65 0.40 0.58 0.58 0.57 0.50 0.44 0.46 0.46 nan nan nan
SL_Ratio
nan nan nan nan nan nan nan nan nan nan nan nan nan nan nan nan nan nan nan nan nan nan nan nan nan nan nan nan nan nan nan nan nan nan nan nan nan nan nan nan nan nan nan nan
nan nan nan nan nan nan nan nan nan nan nan nan nan nan nan nan nan nan nan nan nan nan nan nan nan nan nan nan nan nan nan nan nan nan nan nan nan nan nan nan nan nan nan nan
nan nan nan nan nan nan nan nan nan nan nan nan nan nan nan nan nan nan nan nan nan nan nan nan nan nan nan nan nan nan nan nan nan nan nan nan nan nan nan nan nan nan nan nan
nan nan nan nan nan nan nan nan nan nan nan nan nan 6.1 nan nan nan nan nan nan nan nan nan nan nan nan nan nan nan nan nan nan nan nan nan nan nan nan nan nan nan nan nan nan
nan nan nan nan nan nan nan nan nan nan nan nan nan nan nan nan nan nan nan nan nan nan nan nan nan nan nan nan nan nan nan nan nan nan nan nan nan nan nan nan nan nan nan nan
nan nan nan nan nan nan nan nan nan nan nan 5.9 nan nan nan nan nan nan nan nan nan nan nan nan nan nan nan nan nan nan nan nan nan nan nan nan nan nan nan nan nan nan nan nan
nan nan nan nan nan nan nan nan 5.7 5.9 6.1 5.7 nan 5.6 nan nan nan nan nan nan nan nan nan nan nan nan nan nan nan nan nan nan nan nan nan nan nan nan nan nan nan nan nan nan
5.0 nan nan nan nan nan nan nan 5.9 8.0 6.6 5.1 6.1 6.1 3.9 nan nan nan nan nan nan nan nan nan nan nan nan nan nan nan nan nan nan nan nan nan nan nan nan nan nan nan nan nan
5.0 4.7 nan nan nan nan 5.0 nan nan 6.1 7.8 7.2 nan nan nan nan nan nan nan nan nan nan nan nan nan nan nan nan nan nan nan nan nan nan nan nan nan nan nan nan nan nan nan nan
nan 6.1 nan nan nan nan nan nan 6.2 6.3 8.3 9.0 6.3 nan nan nan nan nan nan nan nan nan nan nan nan nan nan nan nan nan nan nan nan nan nan nan nan nan nan nan nan nan nan nan
nan 5.5 4.7 5.0 nan nan nan 5.0 5.6 6.4 6.3 7.7 7.7 5.5 nan nan nan nan nan nan nan nan nan nan nan nan nan nan nan nan nan nan nan nan nan nan nan nan nan nan nan nan nan nan
nan 5.7 6.3 6.7 nan nan nan nan nan 5.5 6.9 6.0 5.4 6.7 nan nan nan nan nan nan nan nan nan nan nan nan nan nan nan nan nan nan nan nan nan nan nan nan nan nan nan nan nan nan
nan 4.7 6.6 6.5 6.5 nan nan nan 5.0 5.9 5.6 7.4 8.1 7.3 nan nan nan nan nan nan nan nan nan nan nan nan nan nan nan nan nan nan nan nan nan nan nan nan nan nan nan nan nan nan
nan 4.0 5.4 7.0 6.2 10.0 6.4 5.9 5.9 6.4 7.7 6.8 6.8 6.5 nan nan nan 5.0 nan nan nan nan nan nan nan nan nan nan nan nan nan nan nan nan nan nan nan nan nan nan 6.2 nan nan nan
3.9 5.3 4.4 4.7 5.5 5.5 6.5 6.7 5.6 6.1 5.4 8.2 5.6 5.8 5.0 6.5 6.9 6.6 5.0 nan nan nan nan nan nan nan nan nan nan nan nan nan nan nan nan nan nan nan 7.0 7.0 7.1 7.0 7.1 6.7
4.1 6.2 5.6 6.7 4.3 4.2 6.1 5.2 4.4 4.6 5.1 5.6 5.8 6.4 nan nan 5.0 nan nan nan nan nan nan nan nan nan nan nan nan nan nan nan 5.0 7.5 7.5 10.0 8.2 8.0 7.9 7.6 7.6 7.6 7.5 7.2
5.3 5.2 6.8 8.3 5.6 6.0 8.5 5.4 5.0 nan nan nan 6.3 8.0 5.9 6.9 6.9 nan 6.1 nan nan nan nan nan nan nan nan nan nan nan nan 7.0 8.6 9.0 8.8 8.8 8.9 9.4 8.6 8.2 8.1 7.8 7.8 7.3
4.8 5.5 5.6 8.4 7.5 10.1 6.1 nan nan nan 7.9 7.5 7.6 7.5 7.2 7.5 6.8 5.6 5.7 5.4 5.0 nan nan nan nan nan nan nan nan nan 7.8 8.7 9.3 10.0 9.9 10.0 10.0 10.0 9.3 8.4 8.6 8.4 8.3 8.5
3.6 4.7 8.8 8.8 8.9 6.0 5.9 9.3 6.5 7.8 7.0 7.4 7.8 7.3 6.9 6.4 nan 5.0 4.0 5.4 5.0 nan nan nan nan nan nan nan nan 9.6 9.8 9.7 10.0 10.0 10.3 10.1 10.3 10.5 10.2 9.8 10.5 10.7 9.4 8.5
4.6 4.1 5.0 9.0 9.3 9.8 6.8 10.0 nan nan 9.1 7.4 7.2 7.4 7.0 6.3 7.0 6.0 nan nan 5.0 nan nan nan nan nan 7.5 6.9 9.2 10.3 10.5 10.6 11.0 11.0 11.3 11.1 11.2 10.7 10.9 10.3 10.2 9.4 8.9 9.1
8.0 8.1 8.9 8.2 8.7 7.5 5.8 6.6 4.0 9.2 8.1 5.7 6.6 6.9 7.0 7.1 5.8 5.5 nan nan nan 5.0 10.0 5.0 10.0 7.9 8.3 10.2 10.9 10.5 10.4 11.1 11.0 11.2 11.8 11.8 11.5 10.9 11.2 10.5 9.6 9.7 9.3 9.2
8.6 9.1 9.3 9.2 9.6 9.6 6.4 6.1 10.6 8.7 5.4 6.2 5.9 5.5 6.1 5.7 5.3 5.0 5.0 5.0 6.0 6.5 6.4 7.3 9.2 9.5 9.8 10.0 11.5 10.7 10.6 10.8 11.5 11.9 12.6 11.4 10.9 11.0 10.4 9.7 9.5 9.0 9.0 8.8
8.9 8.1 9.3 7.9 7.9 4.9 5.6 5.1 4.4 4.6 5.3 5.1 5.8 5.9 5.0 5.8 nan nan nan nan nan 7.0 8.6 9.1 9.6 9.8 10.1 9.9 11.3 12.4 11.4 12.0 11.9 10.5 10.3 10.5 10.4 10.4 10.3 9.6 9.6 8.7 8.4 8.1
5.1 2.5 6.2 7.3 5.5 5.8 5.3 4.3 5.0 4.7 5.4 5.3 5.8 6.3 5.9 5.9 6.2 6.9 6.9 7.2 7.8 8.8 9.3 9.5 9.9 10.5 11.1 10.2 10.7 11.1 12.1 12.0 10.0 10.2 10.6 10.9 10.7 9.9 10.0 9.5 9.1 8.5 8.4 8.4
5.3 4.6 4.8 6.0 4.5 5.0 5.0 nan 5.0 4.2 5.9 6.7 6.3 6.4 5.3 6.3 7.2 7.0 7.2 7.4 7.5 9.1 9.8 10.1 10.3 10.3 11.0 11.8 12.1 11.5 12.8 12.2 10.9 10.7 11.5 10.9 10.4 10.1 10.1 10.0 11.5 10.8 9.9 9.8
nan 5.0 7.2 7.7 nan nan 2.5 nan 3.8 4.3 5.9 6.3 6.5 7.0 7.2 6.7 7.0 7.3 7.7 7.5 8.1 8.4 9.7 10.5 11.1 12.5 14.3 13.3 12.8 12.3 12.0 11.7 11.4 11.6 10.8 10.8 10.7 10.3 9.9 10.1 10.5 nan nan nan